Location: Bailleul
(50.3375°N, 2.8513°E)
Time: 09:57:37
(UTC+00:00)

Cosmos 2016 Rocket - Pass Details

Date: 23 October 2021
Orbit: 946 x 1001 km, 83.0° (Epoch: 29 November)

Event Time Altitude Azimuth Distance (km) Brightness Sun altitude
Rises 05:13:04 0° 357° (N) 3,633 6.9 -12.0°
Reaches altitude 10° 05:16:15 10° 13° (NNE) 2,681 6.4 -11.5°
Maximum altitude 05:20:48 21° 62° (ENE) 1,984 6.4 -10.7°
Drops below altitude 10° 05:25:20 10° 110° (ESE) 2,673 7.8 -10.0°
Sets 05:28:29 0° 126° (SE) 3,618 8.2 -9.5°
